This is the latest recevied weather packets stored in our database for station/object OK0BH-6. If no packets are shown the sender has not sent any weather packets the latest 10 day(s).
| Time | Temp. | Humidity | Pressure | Rain* | Wind** | Luminosity | Snow |
|---|---|---|---|---|---|---|---|
| 1777308961 | 16.67° C | 33% | 1020 hPa | - | - | - | - |
| 1777308386 | 17.22° C | 33% | 1020 hPa | - | - | - | - |
| 1777307811 | 17.22° C | 33% | 1020 hPa | - | - | - | - |
| 1777307236 | 17.78° C | 33% | 1020 hPa | - | - | - | - |
| 1777306661 | 18.33° C | 32% | 1020.1 hPa | - | - | - | - |
| 1777306087 | 18.89° C | 32% | 1020.2 hPa | - | - | - | - |
| 1777305512 | 18.89° C | 33% | 1020.3 hPa | - | - | - | - |
| 1777304937 | 18.33° C | 33% | 1020.4 hPa | - | - | - | - |
| 1777304362 | 18.33° C | 32% | 1020.5 hPa | - | - | - | - |
| 1777303787 | 18.33° C | 32% | 1020.5 hPa | - | - | - | - |
| 1777303212 | 18.33° C | 32% | 1020.6 hPa | - | - | - | - |
| 1777302637 | 18.33° C | 32% | 1020.7 hPa | - | - | - | - |
| 1777302062 | 18.89° C | 32% | 1020.7 hPa | - | - | - | - |
| 1777301488 | 17.78° C | 34% | 1020.9 hPa | - | - | - | - |
| 1777300913 | 17.22° C | 33% | 1021 hPa | - | - | - | - |
| 1777300338 | 16.67° C | 33% | 1020.9 hPa | - | - | - | - |
| 1777299763 | 16.67° C | 34% | 1021 hPa | - | - | - | - |
| 1777299188 | 16.67° C | 33% | 1021.1 hPa | - | - | - | - |
| 1777298613 | 16.11° C | 33% | 1021.2 hPa | - | - | - | - |
| 1777298038 | 16.11° C | 33% | 1021.2 hPa | - | - | - | - |
| 1777297463 | 16.11° C | 33% | 1021.3 hPa | - | - | - | - |
| 1777296888 | 16.11° C | 34% | 1021.5 hPa | - | - | - | - |
| 1777296314 | 16.11° C | 34% | 1021.6 hPa | - | - | - | - |
| 1777295739 | 15.56° C | 34% | 1021.7 hPa | - | - | - | - |
| 1777295164 | 15.56° C | 34% | 1021.7 hPa | - | - | - | - |
* Rain since midnight (hover to see other rain measurements)
** Current wind speed in m/s (hover to see current wind gust speed)